Time,TemperatureF,DewpointF,PressureIn,WindDirection,WindDirectionDegrees,WindSpeedMPH,WindSpeedGustMPH,Humidity,HourlyPrecipIn,Conditions,Clouds,dailyrainin,SolarRadiationWatts/m^2,SoftwareType,DateUTC
2013-04-03 00:00:00,28.4,21.0,30.32,SW,233,0.0,-999.0,73,-99.99,,,0.00,0,weatherlink.com 1.10,2013-04-03 05:00:00,
2013-04-03 00:15:00,27.8,21.0,30.32,SW,233,0.0,-999.0,74,-99.99,,,0.00,0,weatherlink.com 1.10,2013-04-03 05:15:00,
2013-04-03 00:30:00,27.8,21.0,30.32,SW,233,0.0,-999.0,76,-99.99,,,0.00,0,weatherlink.com 1.10,2013-04-03 05:30:00,
2013-04-03 00:45:00,28.2,21.0,30.32,SW,233,0.0,-999.0,74,-99.99,,,0.00,0,weatherlink.com 1.10,2013-04-03 05:45:00,
2013-04-03 01:00:00,27.6,21.0,30.33,SW,233,0.0,-999.0,75,-99.99,,,0.00,0,weatherlink.com 1.10,2013-04-03 06:00:00,
2013-04-03 01:15:00,27.5,21.0,30.33,SW,233,0.0,-999.0,75,-99.99,,,0.00,0,weatherlink.com 1.10,2013-04-03 06:15:00,
2013-04-03 01:36:00,27.8,21.0,30.33,SW,233,0.0,-999.0,75,-99.99,,,0.00,0,weatherlink.com 1.10,2013-04-03 06:36:00,
2013-04-03 01:45:00,27.6,21.0,30.33,SW,233,0.0,-999.0,75,-99.99,,,0.00,0,weatherlink.com 1.10,2013-04-03 06:45:00,
2013-04-03 02:00:00,27.2,20.0,30.33,SW,233,0.0,-999.0,75,-99.99,,,0.00,0,weatherlink.com 1.10,2013-04-03 07:00:00,
2013-04-03 02:15:00,27.2,21.0,30.33,SW,233,0.0,-999.0,76,-99.99,,,0.00,0,weatherlink.com 1.10,2013-04-03 07:15:00,
2013-04-03 02:30:00,27.3,20.0,30.33,SW,233,0.0,-999.0,75,-99.99,,,0.00,0,weatherlink.com 1.10,2013-04-03 07:30:00,
2013-04-03 02:47:00,27.0,20.0,30.32,SW,233,0.0,-999.0,76,-99.99,,,0.00,0,weatherlink.com 1.10,2013-04-03 07:47:00,
2013-04-03 03:00:00,26.9,20.0,30.32,SW,233,0.0,-999.0,76,-99.99,,,0.00,0,weatherlink.com 1.10,2013-04-03 08:00:00,
2013-04-03 03:15:00,26.9,20.0,30.32,SW,233,0.0,-999.0,76,-99.99,,,0.00,0,weatherlink.com 1.10,2013-04-03 08:15:00,
2013-04-03 03:30:00,26.9,20.0,30.32,SW,233,0.0,-999.0,76,-99.99,,,0.00,0,weatherlink.com 1.10,2013-04-03 08:30:00,
2013-04-03 03:45:00,26.6,20.0,30.34,SW,233,0.0,-999.0,77,-99.99,,,0.00,0,weatherlink.com 1.10,2013-04-03 08:45:00,
2013-04-03 04:00:00,26.7,20.0,30.34,SW,233,0.0,-999.0,77,-99.99,,,0.00,0,weatherlink.com 1.10,2013-04-03 09:00:00,
2013-04-03 04:15:00,26.9,21.0,30.34,SW,233,0.0,-999.0,77,-99.99,,,0.00,0,weatherlink.com 1.10,2013-04-03 09:15:00,
2013-04-03 04:30:00,26.1,20.0,30.34,SW,233,0.0,-999.0,78,-99.99,,,0.00,0,weatherlink.com 1.10,2013-04-03 09:30:00,
2013-04-03 04:45:00,25.8,20.0,30.33,SW,233,0.0,-999.0,78,-99.99,,,0.00,0,weatherlink.com 1.10,2013-04-03 09:45:00,
2013-04-03 05:06:00,26.0,20.0,30.34,SW,233,0.0,-999.0,78,-99.99,,,0.00,0,weatherlink.com 1.10,2013-04-03 10:06:00,
2013-04-03 05:15:00,25.8,20.0,30.34,SW,233,0.0,-999.0,79,-99.99,,,0.00,0,weatherlink.com 1.10,2013-04-03 10:15:00,
2013-04-03 05:30:00,26.0,20.0,30.35,SW,223,0.0,-999.0,79,-99.99,,,0.00,0,weatherlink.com 1.10,2013-04-03 10:30:00,
2013-04-03 05:45:00,25.4,20.0,30.35,SW,223,0.0,-999.0,79,-99.99,,,0.00,0,weatherlink.com 1.10,2013-04-03 10:45:00,
2013-04-03 06:00:00,25.1,19.0,30.36,SW,223,0.0,-999.0,79,-99.99,,,0.00,0,weatherlink.com 1.10,2013-04-03 11:00:00,
2013-04-03 06:17:00,24.7,19.0,30.37,SW,223,0.0,-999.0,80,-99.99,,,0.00,0,weatherlink.com 1.10,2013-04-03 11:17:00,
2013-04-03 06:30:00,24.4,19.0,30.37,SW,223,0.0,-999.0,80,-99.99,,,0.00,0,weatherlink.com 1.10,2013-04-03 11:30:00,
2013-04-03 06:45:00,24.1,19.0,30.38,SW,223,0.0,-999.0,80,-99.99,,,0.00,0,weatherlink.com 1.10,2013-04-03 11:45:00,
2013-04-03 07:00:00,23.8,19.0,30.38,SW,223,0.0,-999.0,81,-99.99,,,0.00,0,weatherlink.com 1.10,2013-04-03 12:00:00,
2013-04-03 07:15:00,24.1,20.0,30.39,SW,223,0.0,-999.0,83,-99.99,,,0.00,16,weatherlink.com 1.10,2013-04-03 12:15:00,
2013-04-03 07:30:00,24.5,20.0,30.39,SW,223,0.0,-999.0,83,-99.99,,,0.00,37,weatherlink.com 1.10,2013-04-03 12:30:00,
2013-04-03 07:45:00,25.6,21.0,30.40,SW,236,0.0,-999.0,83,-99.99,,,0.00,62,weatherlink.com 1.10,2013-04-03 12:45:00,
2013-04-03 08:00:00,27.2,22.0,30.39,WNW,283,1.0,-999.0,79,-99.99,,,0.00,86,weatherlink.com 1.10,2013-04-03 13:00:00,
2013-04-03 08:16:00,28.1,22.0,30.40,NW,307,2.0,-999.0,77,-99.99,,,0.00,116,weatherlink.com 1.10,2013-04-03 13:16:00,
2013-04-03 08:38:00,29.5,22.0,30.40,NW,314,1.0,-999.0,72,-99.99,,,0.00,167,weatherlink.com 1.10,2013-04-03 13:38:00,
2013-04-03 08:46:00,30.3,22.0,30.40,NW,316,2.0,-999.0,71,-99.99,,,0.00,207,weatherlink.com 1.10,2013-04-03 13:46:00,
2013-04-03 09:01:00,31.5,23.0,30.40,WNW,295,4.0,-999.0,70,-99.99,,,0.00,200,weatherlink.com 1.10,2013-04-03 14:01:00,
2013-04-03 09:47:00,34.3,20.0,30.39,West,281,4.0,-999.0,55,-99.99,,,0.00,267,weatherlink.com 1.10,2013-04-03 14:47:00,
2013-04-03 10:01:00,35.8,20.0,30.39,NW,321,2.0,-999.0,54,-99.99,,,0.00,283,weatherlink.com 1.10,2013-04-03 15:01:00,
2013-04-03 10:31:00,37.3,21.0,30.40,WNW,303,7.0,-999.0,52,-99.99,,,0.00,350,weatherlink.com 1.10,2013-04-03 15:31:00,
2013-04-03 10:46:00,37.9,20.0,30.39,NNE,17,5.0,-999.0,48,-99.99,,,0.00,396,weatherlink.com 1.10,2013-04-03 15:46:00,
2013-04-03 11:01:00,38.8,20.0,30.39,NW,309,7.0,-999.0,47,-99.99,,,0.00,482,weatherlink.com 1.10,2013-04-03 16:01:00,
2013-04-03 11:16:00,39.9,20.0,30.40,NW,317,6.0,-999.0,45,-99.99,,,0.00,508,weatherlink.com 1.10,2013-04-03 16:16:00,
2013-04-03 11:31:00,41.5,20.0,30.40,WNW,300,11.0,-999.0,43,-99.99,,,0.00,582,weatherlink.com 1.10,2013-04-03 16:31:00,
2013-04-03 11:47:00,41.8,21.0,30.39,WNW,301,6.0,-999.0,44,-99.99,,,0.00,613,weatherlink.com 1.10,2013-04-03 16:47:00,
2013-04-03 12:16:00,43.2,20.0,30.38,North,355,4.0,-999.0,40,-99.99,,,0.00,589,weatherlink.com 1.10,2013-04-03 17:16:00,
2013-04-03 12:31:00,43.9,20.0,30.37,NNE,22,2.0,-999.0,38,-99.99,,,0.00,589,weatherlink.com 1.10,2013-04-03 17:31:00,
2013-04-03 12:46:00,45.2,22.0,30.36,North,5,5.0,-999.0,40,-99.99,,,0.00,561,weatherlink.com 1.10,2013-04-03 17:46:00,
2013-04-03 13:01:00,45.2,21.0,30.35,West,277,1.0,-999.0,38,-99.99,,,0.00,534,weatherlink.com 1.10,2013-04-03 18:01:00,
2013-04-03 13:17:00,45.7,21.0,30.35,NNW,331,2.0,-999.0,37,-99.99,,,0.00,621,weatherlink.com 1.10,2013-04-03 18:17:00,
2013-04-03 13:47:00,47.4,19.0,30.33,WNW,288,6.0,-999.0,32,-99.99,,,0.00,763,weatherlink.com 1.10,2013-04-03 18:47:00,
2013-04-03 14:02:00,47.7,20.0,30.32,WNW,296,2.0,-999.0,34,-99.99,,,0.00,779,weatherlink.com 1.10,2013-04-03 19:02:00,
2013-04-03 14:17:00,49.2,19.0,30.31,WNW,302,1.0,-999.0,30,-99.99,,,0.00,819,weatherlink.com 1.10,2013-04-03 19:17:00,
2013-04-03 14:32:00,49.6,18.0,30.31,West,277,4.0,-999.0,29,-99.99,,,0.00,696,weatherlink.com 1.10,2013-04-03 19:32:00,
2013-04-03 14:47:00,50.2,18.0,30.30,WSW,239,0.0,-999.0,28,-99.99,,,0.00,612,weatherlink.com 1.10,2013-04-03 19:47:00,
2013-04-03 15:02:00,50.4,19.0,30.30,WSW,252,0.0,-999.0,29,-99.99,,,0.00,679,weatherlink.com 1.10,2013-04-03 20:02:00,
2013-04-03 15:17:00,51.6,18.0,30.30,South,191,0.0,-999.0,27,-99.99,,,0.00,473,weatherlink.com 1.10,2013-04-03 20:17:00,
2013-04-03 15:40:00,51.6,19.0,30.29,NW,312,0.0,-999.0,28,-99.99,,,0.00,325,weatherlink.com 1.10,2013-04-03 20:40:00,
2013-04-03 15:47:00,51.1,21.0,30.29,NNE,22,0.0,-999.0,31,-99.99,,,0.00,294,weatherlink.com 1.10,2013-04-03 20:47:00,
2013-04-03 16:02:00,51.6,22.0,30.29,South,186,0.0,-999.0,31,-99.99,,,0.00,236,weatherlink.com 1.10,2013-04-03 21:02:00,
2013-04-03 16:17:00,52.2,20.0,30.28,SSE,165,1.0,-999.0,28,-99.99,,,0.00,258,weatherlink.com 1.10,2013-04-03 21:17:00,
2013-04-03 16:32:00,52.0,20.0,30.27,West,275,3.0,-999.0,28,-99.99,,,0.00,357,weatherlink.com 1.10,2013-04-03 21:32:00,
2013-04-03 16:49:00,52.5,20.0,30.26,WNW,284,4.0,-999.0,28,-99.99,,,0.00,192,weatherlink.com 1.10,2013-04-03 21:49:00,
2013-04-03 17:02:00,51.4,19.0,30.25,SSW,200,2.0,-999.0,28,-99.99,,,0.00,239,weatherlink.com 1.10,2013-04-03 22:02:00,
2013-04-03 17:17:00,51.3,21.0,30.25,West,278,1.0,-999.0,30,-99.99,,,0.00,155,weatherlink.com 1.10,2013-04-03 22:17:00,
2013-04-03 17:32:00,51.0,22.0,30.25,NW,306,4.0,-999.0,32,-99.99,,,0.00,128,weatherlink.com 1.10,2013-04-03 22:32:00,
2013-04-03 17:47:00,50.5,22.0,30.25,West,281,0.0,-999.0,33,-99.99,,,0.00,116,weatherlink.com 1.10,2013-04-03 22:47:00,
2013-04-03 18:02:00,50.7,21.0,30.24,NW,304,5.0,-999.0,31,-99.99,,,0.00,141,weatherlink.com 1.10,2013-04-03 23:02:00,
2013-04-03 18:17:00,51.3,21.0,30.25,NNW,328,0.0,-999.0,31,-99.99,,,0.00,135,weatherlink.com 1.10,2013-04-03 23:17:00,
2013-04-03 18:32:00,50.4,20.0,30.25,NNW,340,0.0,-999.0,30,-99.99,,,0.00,65,weatherlink.com 1.10,2013-04-03 23:32:00,
2013-04-03 18:47:00,49.4,21.0,30.25,NW,309,3.0,-999.0,33,-99.99,,,0.00,54,weatherlink.com 1.10,2013-04-03 23:47:00,
2013-04-03 19:17:00,47.1,21.0,30.24,WNW,302,0.0,-999.0,35,-99.99,,,0.00,18,weatherlink.com 1.10,2013-04-04 00:17:00,
2013-04-03 19:32:00,46.0,20.0,30.24,WNW,302,0.0,-999.0,36,-99.99,,,0.00,7,weatherlink.com 1.10,2013-04-04 00:32:00,
2013-04-03 19:47:00,45.4,20.0,30.24,WNW,302,0.0,-999.0,36,-99.99,,,0.00,0,weatherlink.com 1.10,2013-04-04 00:47:00,
2013-04-03 20:02:00,44.5,20.0,30.24,WNW,302,0.0,-999.0,38,-99.99,,,0.00,0,weatherlink.com 1.10,2013-04-04 01:02:00,
2013-04-03 20:19:00,43.6,20.0,30.23,WNW,302,2.0,-999.0,39,-99.99,,,0.00,0,weatherlink.com 1.10,2013-04-04 01:19:00,
2013-04-03 20:32:00,43.2,20.0,30.23,WNW,302,0.0,-999.0,39,-99.99,,,0.00,0,weatherlink.com 1.10,2013-04-04 01:32:00,
2013-04-03 20:47:00,42.9,19.0,30.24,WNW,302,0.0,-999.0,39,-99.99,,,0.00,0,weatherlink.com 1.10,2013-04-04 01:47:00,
2013-04-03 21:02:00,42.3,20.0,30.24,WNW,302,0.0,-999.0,41,-99.99,,,0.00,0,weatherlink.com 1.10,2013-04-04 02:02:00,
2013-04-03 21:17:00,41.3,20.0,30.24,WNW,302,2.0,-999.0,42,-99.99,,,0.00,0,weatherlink.com 1.10,2013-04-04 02:17:00,
2013-04-03 21:32:00,40.5,19.0,30.24,WNW,302,0.0,-999.0,43,-99.99,,,0.00,0,weatherlink.com 1.10,2013-04-04 02:32:00,
2013-04-03 21:47:00,40.2,19.0,30.25,WNW,302,0.0,-999.0,43,-99.99,,,0.00,0,weatherlink.com 1.10,2013-04-04 02:47:00,
2013-04-03 22:02:00,39.8,19.0,30.25,WNW,302,0.0,-999.0,43,-99.99,,,0.00,0,weatherlink.com 1.10,2013-04-04 03:02:00,
2013-04-03 22:17:00,39.2,19.0,30.24,WNW,302,0.0,-999.0,44,-99.99,,,0.00,0,weatherlink.com 1.10,2013-04-04 03:17:00,
2013-04-03 22:39:00,38.6,18.0,30.24,WNW,302,0.0,-999.0,44,-99.99,,,0.00,0,weatherlink.com 1.10,2013-04-04 03:39:00,
2013-04-03 22:47:00,38.2,18.0,30.23,WNW,302,0.0,-999.0,45,-99.99,,,0.00,0,weatherlink.com 1.10,2013-04-04 03:47:00,
2013-04-03 23:02:00,37.8,18.0,30.24,WNW,302,0.0,-999.0,45,-99.99,,,0.00,0,weatherlink.com 1.10,2013-04-04 04:02:00,
2013-04-03 23:17:00,37.0,18.0,30.23,WNW,302,0.0,-999.0,46,-99.99,,,0.00,0,weatherlink.com 1.10,2013-04-04 04:17:00,
2013-04-03 23:32:00,37.3,18.0,30.23,WNW,302,0.0,-999.0,45,-99.99,,,0.00,0,weatherlink.com 1.10,2013-04-04 04:32:00,
2013-04-03 23:47:00,37.0,17.0,30.23,WNW,302,0.0,-999.0,45,-99.99,,,0.00,0,weatherlink.com 1.10,2013-04-04 04:47:00,